Hourly Data Report for July 15, 2021

TORONTO CITY
ONTARIO
Current Station Operator: ECCC - MSC

43°40'00.000" N
79°24'00.000" W
112.50 m
6158355
71508
XTO

Download Data

Hourly Data (July 2021)
Hourly Data Report for July 15, 2021
TIME
LST
Temp Definition
°C
Dew Point Definition
°C
Rel Hum Definition
%
Precip. Amount Definition
mm

Wind Dir Definition
10's deg

Wind Spd Definition
km/h
Visibility Definition
km
Stn Press Definition
kPa
Hmdx Definition


Wind Chill Definition


Weather Definition


00:00 21.8 19.3 86 0.0       100.49 29   LegendNANA
01:00 21.6 19.3 87 0.0       100.48 29   LegendNANA
02:00 21.6 19.1 86 0.0       100.47 28   LegendNANA
03:00 20.9 19.1 89 0.0       100.46 28   LegendNANA
04:00 20.7 19.1 91 0.0       100.42 28   LegendNANA
05:00 21.0 19.4 91 0.0       100.40 28   LegendNANA
06:00 21.4 19.5 89 0.0       100.36 29   LegendNANA
07:00 22.1 19.5 85 0.0       100.37 29   LegendNANA
08:00 23.0 19.1 79 0.0       100.32 30   LegendNANA
09:00 24.2 19.9 77 0.0       100.27 32   LegendNANA
10:00 25.9 20.5 72 0.0       100.21 34   LegendNANA
11:00 26.8 20.3 68 0.0       100.16 35   LegendNANA
12:00 26.1 20.3 71 0.0       100.09 34   LegendNANA
13:00 26.8 20.6 69 0.0       99.98 35   LegendNANA
14:00 26.9 20.3 67 0.0       99.92 35   LegendNANA
15:00 27.1 20.3 66 0.0       99.84 35   LegendNANA
16:00 27.1 20.0 65 0.0       99.77 35   LegendNANA
17:00 26.9 20.1 66 0.0       99.73 35   LegendNANA
18:00 27.5 20.1 64 0.0       99.69 35   LegendNANA
19:00 25.6 21.5 78 1.1       99.74 34   LegendNANA
20:00 24.8 22.0 84 0.0       99.79 34   LegendNANA
21:00 22.4 21.1 92 3.0       99.89 31   LegendNANA
22:00 22.2 20.5 90 5.1       99.96 30   LegendNANA
23:00 21.0 18.4 85 0.0       99.99 27   LegendNANA

Notes on Data Quality.

Legend

  • E = Estimated
  • M = Missing
  • NA = Not Available*
  • [empty] = Indicates an unobserved value
Date modified: